Ketchikan, AK

7:25 AM AKST on November 15, 2018 (GMT -0900)
Ketchikan International

Weather History for PAKT - March, 2018

Change the Weather History Date:

Thursday, March 8, 2018

  Actual Average Record
Temperature  
Mean Temperature 33 °F -  
Max Temperature 39 °F 42 °F 54 °F (1957)
Min Temperature 27 °F 31 °F 6 °F (2002)
Degree Days  
Heating Degree Days 32    
Moisture  
Dew Point 28 °F    
Average Humidity 78    
Maximum Humidity 86    
Minimum Humidity 61    
Precipitation  
Precipitation 0.00 in - - ()
Sea Level Pressure  
Sea Level Pressure 29.69 in    
Wind  
Wind Speed 3 mph (SE)    
Max Wind Speed 9 mph    
Max Gust Speed -    
Visibility 10 miles    
Events      
Averages and records for this station are not official NWS values.
T = Trace of Precipitation, MM = Missing Value Source: NWS Daily Summary

Daily Weather History Graph

Daily Weather History Graph

Search for Another Location

Airport or City:

Astronomy

Mar. 08, 2018 Rise Set
Actual Time 6:19 AM AKST 5:36 PM AKST
Civil Twilight 5:42 AM AKST 6:13 PM AKST
Nautical Twilight 5:00 AM AKST 6:55 PM AKST
Astronomical Twilight 4:17 AM AKST 7:39 PM AKST
Moon 12:45 AM AKST (3/8) 9:30 AM AKST (3/8)
Length of Visible Light 12h 30m
Length of Day
11h 17m
Waning Gibbous, 56% of the Moon is Illuminated
Mar 8
Waning Gibbous
Mar 9
Last Quarter
Mar 17
New
Mar 24
First Quarter
Mar 31
Full

Hourly Weather History & Observations

Time (AKST) Temp. Windchill Dew Point Humidity Pressure Visibility Wind Dir Wind Speed Gust Speed Precip Events Conditions
12:53 AM 27.0 °F 23.0 °F 21.9 °F 81% 29.82 in 10.0 mi SSE 3.5 mph - N/A   Clear
1:53 AM 28.9 °F - 25.0 °F 85% 29.80 in 10.0 mi Calm Calm - N/A   Clear
2:53 AM 27.0 °F - 21.9 °F 81% 29.78 in 10.0 mi Calm Calm - N/A   Overcast
3:53 AM 28.0 °F - 24.1 °F 85% 29.76 in 10.0 mi Calm Calm - N/A   Overcast
4:53 AM 30.0 °F - 25.0 °F 82% 29.75 in 10.0 mi Calm Calm - N/A   Overcast
5:53 AM 30.0 °F - 25.0 °F 82% 29.73 in 10.0 mi Calm Calm - N/A   Overcast
6:53 AM 30.9 °F - 25.0 °F 79% 29.71 in 10.0 mi Calm Calm - N/A   Overcast
7:53 AM 32.0 °F - 26.1 °F 79% 29.70 in 10.0 mi Calm Calm - N/A   Overcast
8:53 AM 34.0 °F - 26.1 °F 73% 29.69 in 10.0 mi Calm Calm - N/A   Overcast
9:53 AM 35.1 °F 32.2 °F 26.1 °F 70% 29.68 in 10.0 mi ESE 3.5 mph - N/A   Overcast
10:53 AM 37.0 °F 32.4 °F 27.0 °F 67% 29.68 in 10.0 mi ESE 5.8 mph - N/A   Overcast
11:53 AM 39.2 °F 34.2 °F 26.6 °F 61% 29.66 in 10.0 mi ESE 6.9 mph - N/A   Mostly Cloudy
12:53 PM 39.2 °F 37.0 °F 26.6 °F 61% 29.66 in 10.0 mi Variable 3.5 mph - N/A   Mostly Cloudy
1:53 PM 37.9 °F - 30.9 °F 76% 29.65 in 10.0 mi Calm Calm - N/A   Mostly Cloudy
2:53 PM 37.4 °F 34.9 °F 30.2 °F 75% 29.65 in 10.0 mi South 3.5 mph - N/A   Mostly Cloudy
3:53 PM 37.4 °F 34.9 °F 32.0 °F 81% 29.65 in 10.0 mi SE 3.5 mph - N/A   Overcast
4:53 PM 37.9 °F 34.4 °F 30.9 °F 76% 29.65 in 10.0 mi SE 4.6 mph - N/A   Overcast
5:51 PM 37.4 °F 32.8 °F 30.2 °F 75% 29.65 in 10.0 mi SE 5.8 mph - N/A   Overcast
5:53 PM 37.4 °F 32.8 °F 30.2 °F 75% 29.65 in 10.0 mi SE 5.8 mph - N/A   Overcast
6:53 PM 36.0 °F 31.1 °F 32.0 °F 86% 29.65 in 10.0 mi SE 5.8 mph - N/A   Overcast
7:53 PM 35.1 °F 30.1 °F 30.9 °F 85% 29.66 in 10.0 mi SE 5.8 mph - N/A   Overcast
8:34 PM 35.1 °F 30.1 °F 30.9 °F 85% 29.66 in 10.0 mi SE 5.8 mph - N/A   Overcast
8:53 PM 37.0 °F 31.6 °F 30.9 °F 79% 29.67 in 10.0 mi SE 6.9 mph - N/A   Overcast
9:44 PM 36.0 °F 32.1 °F 30.9 °F 82% 29.67 in 10.0 mi SSE 4.6 mph - N/A   Overcast
9:53 PM 36.0 °F 31.1 °F 30.9 °F 82% 29.68 in 10.0 mi SE 5.8 mph - N/A   Overcast
10:53 PM 36.0 °F 30.3 °F 30.9 °F 82% 29.67 in 10.0 mi South 6.9 mph - N/A   Overcast
11:53 PM 37.0 °F 30.4 °F 30.0 °F 76% 29.67 in 10.0 mi SSE 9.2 mph - N/A   Scattered Clouds